Tracking 30995 objects as of 5-Jul-2025
HD Live streaming from Space Station
objects crossing your sky now

YZ-1 R/B

Track YZ-1 R/B now!


NORAD ID: 43625
Int'l Code: 2018-072D
Perigee: 22,142.3 km
Apogee: 22,747.6 km
Inclination: 56.1 °
Period: 811.4 minutes
Semi major axis: 28815 km
RCS: Unknown
Launch date: September 19, 2018
Source: People's Republic of China (PRC)
Launch site: Xichang Space Center, China (XSC)

Note: This is a ROCKET BODY
Your satellite tracking list
Your tracking list is empty




NASA's NSSDC Master Catalog

Two Line Element Set (TLE):
1 43625U 18072D   25185.95726306 -.00000052  00000-0  00000-0 0  9995
2 43625  56.1170  82.1056 0105032  59.9720 301.0961  1.77481902 44026
Source of the keplerian elements: AFSPC